Location: Nairn
(57.5833°N, 3.8667°W)
Time: 23:11:07
(UTC+00:00)

S-56A Canister/Altair - Pass Details

Date: 09 October 2022
Orbit: 638 x 2494 km, 38.9° (Epoch: 09 December)

Event Time Altitude Azimuth Distance (km) Brightness Sun altitude
Exits shadow 02:26:58 17° 150° (SSE) 3,072 10.4 -31.5°
Drops below altitude 10° 02:28:54 10° 139° (SE) 3,398 10.7 -31.3°
Sets 02:31:56 0° 126° (SE) 4,103 11.4 -31.0°
